Regional Weather Roundup
Issued by NWS Pendleton, OR

Home | Current Version | Previous Version | Text Only | Print | Product List | Glossary On
Versions: 1 2 3 4 5 6 7 8 9 10 11 12 13 14 15 16 17 18 19 20 21 22 23 24 25 26 27 28 29 30 31 32 33 34 35 36 37 38 39 40 41 42 43 44 45 46 47 48 49 50
000
ASUS46 KPDT 241110
RWRPDT
PENDLETON REGIONAL WEATHER ROUNDUP
NATIONAL WEATHER SERVICE PENDLETON OREGON
400 AM PDT MON JUL 24 2017

NOTE: FAIR INDICATES FEW OR NO CLOUDS BELOW 12,000 FEET WITH NO
SIGNIFICANT WEATHER AND/OR OBSTRUCTIONS TO VISIBILITY.

# INDICATES UNOFFICIAL STATION AND DATA

WAZ520-241210-
EAST SLOPES OF WASHINGTON CASCADES

CITY            SKY/WX      TMP DP  RH  WIND    PRES   REMARKS
#BULLFROG       N/A         59  50  72  SW2     N/A
#CLE ELUM HS    N/A         54  45  71  CALM    29.92S
#CLE ELUM LAKE  N/A         55  41  59  SE3     30.03S
#EASTON DOT     N/A         54  46  74  CALM    N/A
#ELK HTS DOT    N/A         57  57  100 N1      N/A
#GLENWOOD       N/A         49  46  89  CALM    29.84R
#NELSON 3SW     N/A         50  34  54  CALM    30.07S
#NILE           N/A         51  44  77  CALM    29.20S
#TEANAWAY 4NE   N/A         49  43  80  CALM    N/A
#TROUT LAKE 1NE N/A         51  47  86  CALM    29.83S
#TROUT LAKE 1E  N/A         53  47  80  CALM    29.96S
$$

WAZ521-241210-
SIMCOE HIGHLANDS

CITY            SKY/WX      TMP DP  RH  WIND    PRES   REMARKS
#BICKLETON HS   N/A         66  39  37  NW12    29.92R
#CENTERVILLE 1SWN/A         56  48  74  CALM    29.80R
#GOLDENDALE 1NE N/A         57  39  51  N3      N/A
#GOLDENDALE 4W  N/A         55  32  41  CALM    29.97R
#GOODNOE HILLS  N/A         67  52  59  NW3     N/A
#LYLE 6NE       N/A         62  54  75  SE3     29.85R
#PITT 4SE       N/A         58  51  77  CALM    29.86R
$$

WAZ026-241210-
KITTITAS VALLEY

CITY            SKY/WX      TMP DP  RH  WIND    PRES   REMARKS
ELLENSBURG AP   CLEAR       57  45  64  N8      29.97R
#ELLENSBURG CWU N/A         60  46  60  N8      29.83R
#ELLENSBURG 3NE N/A         54  46  74  N2      28.04R
#ELLENSBURG 1E  N/A         61  47  60  NW1     29.91R
#KITTITAS 3S    N/A         54  47  77  CALM    29.87R
#MANASTASH RDG  N/A         58  58  100 N8      N/A
#ROCKY CYN DOT  N/A         59  51  75  W12     N/A
#RYEGRASS DOT   N/A         59  46  62  SW6     N/A
$$

WAZ027-241210-
YAKIMA VALLEY

CITY            SKY/WX      TMP DP  RH  WIND    PRES   REMARKS
SUNNYSIDE AP    N/A         57  47  69  CALM    29.91R
YAKIMA AIRPORT  CLEAR       64  45  50  NW7     29.94R
YAKIMA-VAGABOND CLEAR       64  42  45  E13     29.93R
#DONALD 2NE     N/A         68   9  10  NW5     28.77R
#GRANDVIEW      N/A         64  46  52  CALM    29.88R
#MABTON         N/A         65  50  58  CALM    29.90R
#MOXEE 2E       N/A         69  N/A N/A N2      29.88R
#NACHES 2SW     N/A         64  42  45  W8      29.95R
#OUTLOOK DOT    N/A         61  48  62  CALM    29.87R
#PARKER DOT     N/A         69  39  33  CALM    29.91R
#TERRACE HTS    N/A         69  39  33  E1      29.82R
#TOPPENISH      N/A         67  43  42  CALM    29.78R
#I82 S UMTANUM RN/A         62  44  52  N14     N/A
#UNION GAP DOT  N/A         67  41  39  N6      29.94R
#W YAKIMA       N/A         63  45  52  NE1     29.87R
#WHITE SWAN 5E  N/A         66  45  47  CALM    29.87R
#WILEY CITY 3W  N/A         55  40  57  CALM    29.91R
#ZILLAH DOT     N/A         63  45  52  S1      N/A
$$

WAZ028-241210-
LOWER COLUMBIA BASIN...WASHINGTON

CITY            SKY/WX      TMP DP  RH  WIND    PRES   REMARKS
PASCO           PTCLDY      65  49  56  NW8     29.89R
PROSSER AWOS    N/A         59  50  72  CALM    29.94R
RICHLAND AWOS   CLEAR       74  42  32  NW12    29.89R
#BENTON CITY    N/A         70  43  38  CALM    29.77R
#CONNELL 5N     N/A         64  47  54  NW2     29.82R
#CONNELL 5NW    N/A         63  47  56  NW6     29.78R
#ELTOPIA 6NW    N/A         68  48  49  CALM    28.87R
#KAHLOTUS       N/A         66  43  43  N9      29.81R
#KENNEWICK 3S   N/A         71  45  39  CALM    29.86R
#PATERSON       N/A         66  47  50  E3      29.84R
#PROSSER DOT    N/A         60  49  67  CALM    29.90R
#SAGEMOOR 2W    N/A         68  47  47  W8      29.71R
#TOUCHET 2S     N/A         60  49  67  CALM    29.83R
#WEST PASCO     N/A         71  47  42  W3      29.87R
$$

WAZ029-241210-
FOOTHILLS OF THE BLUES...WASHINGTON

CITY            SKY/WX      TMP DP  RH  WIND    PRES   REMARKS
WALLA WALLA AP  PTCLDY      69  46  44  S8      29.90R
#CLYDE 6NW      N/A         61  44  53  CALM    29.81R
#DAYTON SCHOOL  N/A         62  47  58  CALM    29.92R
#DELANEY DOT    N/A         67  44  43  S1      29.86S
#LOWDEN 2SE     N/A         60  51  72  E1      29.85R
#PLEASANT VIEW 1N/A         64  43  46  SW2     29.83R
#PRESCOTT       N/A         56  50  80  CALM    29.83R
#WHITMAN COLLEGEN/A         68  48  49  SE2     29.88R
#WAITSBURG 5S   N/A         62  44  52  CALM    29.91R
#WAITSBURG 6SSE N/A         64  44  48  E5      29.85R
#WALLA WALLA 5E N/A         63  46  54  S3      N/A
#WHITMAN MISSIONN/A         62  52  70  CALM    29.85R
$$

WAZ030-241210-
BLUE MOUNTAINS...WASHINGTON

CITY            SKY/WX      TMP DP  RH  WIND    PRES   REMARKS
#DIXIE 5SE      N/A         65  43  45  S5      29.90R
$$

ORZ009-041-WAZ024-241210-
COLUMBIA RIVER GORGE

CITY            SKY/WX      TMP DP  RH  WIND    PRES   REMARKS
HOOD RIVER AP   CLEAR       59  54  83  CALM    29.91R
THE DALLES AP   CLEAR       69  56  63  W7      29.88R
#ARLINGTON AIRPON/A         69  55  61  S3      29.85R
#CELILO DOT     N/A         72  53  51  SW6     N/A
#LYLE           N/A         68  57  68  W6      29.89R
#MARYHILL       N/A         68  53  59  N3      29.75R
#RUFUS DOT      N/A         73  N/A N/A SE7     N/A
#SMITHVILLE     N/A         67  56  68  W12     29.87R

$$

ORZ510-241210-
NORTH CENTRAL OREGON

CITY            SKY/WX      TMP DP  RH  WIND    PRES   REMARKS
#ANTELOPE       N/A         58  42  55  NE3     29.65R
#CHENOWITH 1W   N/A         60  54  81  NW22    N/A
#COW CYN RST AREN/A         67  41  39  NE2     N/A
#DUFUR          N/A         52  44  74  CALM    29.82R
#DUFUR 9E       N/A         66  50  56  NW3     29.85S
#GRASS VALLEY 1SN/A         58  47  67  CALM    29.97R
#KENT DOT       N/A         61  45  56  CALM    N/A
#MAUPIN SCHOOL  N/A         66  54  65  CALM    29.95R
#MORO SCHOOL    N/A         65  56  73  CALM    29.91R
#SHANIKO 5WSW   N/A         68  40  36  N6      N/A
#SHANIKO 4NW    N/A         66  41  40  E6      30.00S
#TYGH VALLEY 2NEN/A         60  49  67  CALM    29.82S
#WAPANITIA AIRPON/A         61  51  70  CALM    29.82R
#WASCO 5NE      N/A         60  51  72  CALM    29.82R
$$

ORZ511-241210-
CENTRAL OREGON

CITY            SKY/WX      TMP DP  RH  WIND    PRES   REMARKS
BEND AIRPORT    PTCLDY      61  43  51  CALM    30.00S
MADRAS AIRPORT  PTCLDY      55  43  64  CALM    29.96F
PRINEVILLE AP   PTCLDY      59  43  55  CALM    29.98F
REDMOND AIRPORT PTCLDY      61  37  41  CALM    29.97S
#ASHWOOD SCHOOL N/A         58  40  51  CALM    29.93S
#BEND 1SW       N/A         57  42  57  W2      N/A
#BEND-AWBREY    N/A         65  43  45  CALM    29.77R
#BEND-KIM LN    N/A         57  48  72  CALM    29.73R
#CULVER         N/A         61  45  56  CALM    29.72S
#CULVER 8W      N/A         61  45  56  CALM    29.96F
#LAKE BILLY CHINN/A         62  N/A N/A CALM    29.91S
#MADRAS 4S      N/A         59  16  18  S6      N/A
#POWELL BUTTE   N/A         67  43  42  SW3     29.96S
#PRINEVILLE     N/A         61  49  65  CALM    29.85S
#PRINEVILLE 3N  N/A         56  50  80  CALM    29.86S
#WARM SPRINGS   N/A         63  46  54  CALM    29.71R

$$


ORZ509-241210-
EAST SLOPES OF OREGON CASCADES

CITY            SKY/WX      TMP DP  RH  WIND    PRES   REMARKS
SISTERS AWOS    N/A         57  48  72  CALM    29.96S
#BLUE BOX PASS  N/A         53  N/A N/A CALM    N/A
#CAMP SHERMAN   N/A         51  45  80  CALM    29.88R
#LA PINE 4NW    N/A         53  42  66  CALM    29.80F
#LAVA BUTTE DOT N/A         56  33  42  CALM    N/A
#SISTERS ODOT   N/A         56  48  74  CALM    N/A
#SISTERS 3N     N/A         53  44  71  CALM    29.90S
#SUNRIVER       N/A         56  47  72  CALM    29.95S
#TUMALO 3W      N/A         63  45  52  W3      29.65R
#WANOGA BUTTE D N/A         67  42  40  CALM    N/A

$$

ORZ044-241210-
LOWER COLUMBIA BASIN...OREGON

CITY            SKY/WX      TMP DP  RH  WIND    PRES   REMARKS
HERMISTON       PTCLDY      64  56  75  SW3     29.88S
#BOARDMAN SCHOOLN/A         68  58  70  CALM    29.86R
#BOARDMAN 8SW   N/A         68  56  65  SW2     29.85R
#ECHO 8SW       N/A         63  50  62  CALM    29.90R
#I-84 EX 198 DOTN/A         72  57  59  E2      N/A
#IONE SCHOOL    N/A         61  38  42  CALM    29.85R
#UMATILLA       N/A         66  54  65  CALM    29.78R
$$

ORZ507-241210-
NORTHERN FOOTHILLS OF THE BLUES

CITY            SKY/WX      TMP DP  RH  WIND    PRES   REMARKS
PENDLETON AIRPT PTCLDY      69  43  39  CALM    29.92R
#ADAMS 3WNW     N/A         57  42  57  CALM    29.83R
#ATHENA         N/A         59  45  60  CALM    29.85S
#CAYUSE         N/A         64  51  63  CALM    29.82R
#HELIX SCHOOL   N/A         59  43  55  CALM    29.83R
#HELIX 3N       N/A         63  42  46  CALM    29.91R
#HOLDMAN 6E     N/A         65  43  45  CALM    29.64R
#M-F GROVE ELEM N/A         65  44  46  CALM    29.88R
#M-FREEWATER 5SEN/A         62  49  62  NW1     29.91R
#PENDLETON DNTN N/A         66  42  42  E1      29.89S
#PDT AQUATIC CTRN/A         63  43  48  CALM    29.90S
#PDT SUNRIDGE   N/A         60  48  64  CALM    29.93R
#PENDLETON 7NW  N/A         60  44  55  CALM    29.93R
#PILOT ROCK 1S  N/A         64  47  54  SE1     29.95R
#PILOT ROCK     N/A         62  46  56  CALM    29.96S
#TUTUILLA       N/A         58  50  75  CALM    29.96S
#UMAPINE 2E     N/A         61  51  70  CALM    29.86R
#WESTON SCHOOL  N/A         63  41  44  CALM    29.84S

$$

ORZ508-241210-
SOUTHERN FOOTHILLS OF THE BLUES

CITY            SKY/WX      TMP DP  RH  WIND    PRES   REMARKS
LEXINGTON       MOCLDY      64  52  65  E8      29.96R
#AJAX           N/A         67  43  42  S2      30.10R
#CONDON 5W      N/A         64  47  54  N7      29.98S
#FOSSIL SCHOOL  N/A         60  48  64  CALM    29.91S
#HEPPNER EOC    N/A         64  51  63  E5      29.76S
#HEPPNER 4NE    N/A         59  50  72  E2      29.80S
#LEXINGTON 2SE  N/A         63  52  67  CALM    29.88F
#MIKKALO        N/A         62  46  56  E1      30.05R
#OLEX 4N        N/A         65  52  63  SW3     29.89R
#RUGGS 5NE      N/A         64  48  56  CALM    30.14S
#RUGGS 2SW      N/A         61  48  62  S2      29.82R

$$

ORZ502-503-241210-
BLUE MOUNTAINS

CITY            SKY/WX      TMP DP  RH  WIND    PRES   REMARKS
MEACHAM         PTCLDY      50  45  83  CALM    30.03S
#BATTLE MTN DOT N/A         59  48  67  N2      N/A
#GRANITE        N/A         54  45  71  CALM    29.68F
#HARDMAN 10S    N/A         62  48  60  N1      29.85F
#HEPPNER 15SE   N/A         56  48  74  CALM    29.88S
#LADD CYN SMT   N/A         62  49  62  N2      N/A
#LADD CREEK ODOTN/A         63  49  60  SW1     N/A
#LONG CREEK HS  N/A         63  45  52  CALM    N/A
#N POWDER DOT   N/A         61  56  84  N3      N/A
#PIKES PEAK     N/A         65  43  45  N14     27.99S
#TOLLGATE       N/A         56  43  62  CALM    29.93S
#TROY SCHOOL    N/A         65  53  65  CALM    29.64R
#UKIAH          N/A         54  46  74  CALM    29.75S
#WESTON 4E      N/A         64  41  43  CALM    29.75S
$$

ORZ505-241210-
JOHN DAY BASIN

CITY            SKY/WX      TMP DP  RH  WIND    PRES   REMARKS
JOHN DAY        MOCLDY      71  47  42  CALM    29.98F
#JOHN DAY KJDY  N/A         67  N/A N/A CALM    30.51R
#DAYVILLE SCHOOLN/A         73  46  38  CALM    29.90R
#MITCHELL       N/A         65  48  54  CALM    30.14S
#MONUMENT HS    N/A         68  48  49  CALM    29.88S
#MT. VERNON 5SE N/A         67  47  49  CALM    29.95F
#SPRAY SCHOOL   N/A         68  N/A N/A CALM    N/A
$$

ORZ506-241210-
OCHOCO AND JOHN DAY HIGHLANDS

CITY            SKY/WX      TMP DP  RH  WIND    PRES   REMARKS
#HORSE RIDGE DO N/A         52  31  44  W2      N/A
#IZEE 6NW       N/A         60  46  60  CALM    N/A
#PAULINA ODOT   N/A         66  46  48  CALM    N/A
#PINE MTN OBS   N/A         64  41  43  N1      N/A
#SENECA         N/A         59  N/A N/A CALM    N/A
#SENECA 9NW     N/A         58  45  62  CALM    29.73S
$$

ORZ049-241210-
GRANDE RONDE VALLEY

CITY            SKY/WX      TMP DP  RH  WIND    PRES   REMARKS
LA GRANDE       PTCLDY      72  46  39  W12     29.95R
#COVE           N/A         63  52  67  N5      29.99R
#COVE SCHOOL    N/A         64  50  60  CALM    29.98R
#COVE 6NW       N/A         61  51  70  CALM    29.80F
#ELGIN 3N       N/A         56  46  69  CALM    29.93S
#ELGIN 1E       N/A         59  48  67  CALM    N/A
#IMBLER SCHOOL  N/A         61  49  65  CALM    29.92R
#ISLAND CITY 4N N/A         53  50  89  CALM    29.97F
#LA GRANDE-LEFFEN/A         69  51  53  W8      29.96S
#UNION 1S       N/A         67  51  56  N1      29.79S
$$

ORZ050-241210-
WALLOWA COUNTY

CITY            SKY/WX      TMP DP  RH  WIND    PRES   REMARKS
JOSEPH AIRPORT  PTCLDY      57  45  64  S3      30.03R
#ENTERPRISE HS  N/A         54  48  80  CALM    29.68R
#IMNAHA SCHOOL  N/A         69  48  47  E3      29.90R
#IMNAHA 10S     N/A         65  46  50  SW3     29.95R
#JOSEPH         N/A         61  44  53  CALM    29.96R
#JOSEPH 3N      N/A         52  44  74  SE1     30.04R
#JOSEPH 3W      N/A         61  48  62  SW2     29.89R
#LOSTINE        N/A         53  47  80  CALM    29.61R
#LOSTINE 3SE    N/A         53  45  74  SW1     30.04R
#MT HOWARD 8000 N/A         60  27  28  SW1     30.28R
#PROMISE 1S     N/A         63  48  58  NW1     29.85R
#WALLOWA LAKE   N/A         60  43  53  CALM    30.06R
#WALLOWA SCHOOL N/A         54  49  83  CALM    29.95R



$$



USA.gov is the U.S. government's official web portal to all federal, state and local government web resources and services.